Year,Month,Day,Hour,Minute,Value (Times are PST for temperature in C)
2015,04,24,00,00,3.60
2015,04,24,00,01,3.70
2015,04,24,00,02,3.70
2015,04,24,00,03,3.70
2015,04,24,00,04,3.60
2015,04,24,00,05,3.70
2015,04,24,00,06,3.70
2015,04,24,00,07,3.70
2015,04,24,00,08,3.70
2015,04,24,00,09,3.70
2015,04,24,00,10,3.70
2015,04,24,00,11,3.70
2015,04,24,00,12,3.70
2015,04,24,00,13,3.70
2015,04,24,00,14,3.70
2015,04,24,00,15,3.70
2015,04,24,00,16,3.70
2015,04,24,00,17,3.70
2015,04,24,00,18,3.70
2015,04,24,00,19,3.70
2015,04,24,00,20,3.70
2015,04,24,00,21,3.70
2015,04,24,00,22,3.70
2015,04,24,00,23,3.70
2015,04,24,00,24,3.70
2015,04,24,00,25,3.70
2015,04,24,00,26,3.70
2015,04,24,00,27,3.70
2015,04,24,00,28,3.70
2015,04,24,00,29,3.70
2015,04,24,00,30,3.70
2015,04,24,00,31,3.70
2015,04,24,00,32,3.70
2015,04,24,00,33,3.70
2015,04,24,00,34,3.70
2015,04,24,00,35,3.70
2015,04,24,00,36,3.70
2015,04,24,00,37,3.70
2015,04,24,00,38,3.70
2015,04,24,00,39,3.70
2015,04,24,00,40,3.70
2015,04,24,00,41,3.70
2015,04,24,00,42,3.70
2015,04,24,00,43,3.70
2015,04,24,00,44,3.70
2015,04,24,00,45,3.70
2015,04,24,00,46,3.70
2015,04,24,00,47,3.70
2015,04,24,00,48,3.80
2015,04,24,00,49,3.80
2015,04,24,00,50,3.90
2015,04,24,00,51,3.90
2015,04,24,00,52,4.00
2015,04,24,00,53,4.00
2015,04,24,00,54,4.00
2015,04,24,00,55,4.10
2015,04,24,00,56,4.10
2015,04,24,00,57,4.10
2015,04,24,00,58,4.10
2015,04,24,00,59,4.10
2015,04,24,01,00,4.10
2015,04,24,01,01,4.10
2015,04,24,01,02,4.10
2015,04,24,01,03,4.10
2015,04,24,01,04,4.20
2015,04,24,01,05,4.20
2015,04,24,01,06,4.20
2015,04,24,01,07,4.20
2015,04,24,01,08,4.20
2015,04,24,01,09,4.20
2015,04,24,01,10,4.20
2015,04,24,01,11,4.20
2015,04,24,01,12,4.20
2015,04,24,01,13,4.20
2015,04,24,01,14,4.20
2015,04,24,01,15,4.20
2015,04,24,01,16,4.20
2015,04,24,01,17,4.20
2015,04,24,01,18,4.20
2015,04,24,01,19,4.30
2015,04,24,01,20,4.30
2015,04,24,01,21,4.30
2015,04,24,01,22,4.30
2015,04,24,01,23,4.30
2015,04,24,01,24,4.30
2015,04,24,01,25,4.30
2015,04,24,01,26,4.30
2015,04,24,01,27,4.30
2015,04,24,01,28,4.30
2015,04,24,01,29,4.30
2015,04,24,01,30,4.30
2015,04,24,01,31,4.30
2015,04,24,01,32,4.30
2015,04,24,01,33,4.30
2015,04,24,01,34,4.30
2015,04,24,01,35,4.40
2015,04,24,01,36,4.40
2015,04,24,01,37,4.40
2015,04,24,01,38,4.40
2015,04,24,01,39,4.40
2015,04,24,01,40,4.40
2015,04,24,01,41,4.40
2015,04,24,01,42,4.40
2015,04,24,01,43,4.40
2015,04,24,01,44,4.40
2015,04,24,01,45,4.40
2015,04,24,01,46,4.50
2015,04,24,01,47,4.50
2015,04,24,01,48,4.50
2015,04,24,01,49,4.50
2015,04,24,01,50,4.50
2015,04,24,01,51,4.50
2015,04,24,01,52,4.50
2015,04,24,01,53,4.50
2015,04,24,01,54,4.50
2015,04,24,01,55,4.50
2015,04,24,01,56,4.50
2015,04,24,01,57,4.50
2015,04,24,01,58,4.50
2015,04,24,01,59,4.50
2015,04,24,02,00,4.50
2015,04,24,02,01,4.50
2015,04,24,02,02,4.50
2015,04,24,02,03,4.50
2015,04,24,02,04,4.50
2015,04,24,02,05,4.50
2015,04,24,02,06,4.50
2015,04,24,02,07,4.50
2015,04,24,02,08,4.50
2015,04,24,02,09,4.50
2015,04,24,02,10,4.50
2015,04,24,02,11,4.50
2015,04,24,02,12,4.50
2015,04,24,02,13,4.60
2015,04,24,02,14,4.60
2015,04,24,02,15,4.60
2015,04,24,02,16,4.60
2015,04,24,02,17,4.60
2015,04,24,02,18,4.60
2015,04,24,02,19,4.60
2015,04,24,02,20,4.60
2015,04,24,02,21,4.60
2015,04,24,02,22,4.60
2015,04,24,02,23,4.60
2015,04,24,02,24,4.60
2015,04,24,02,25,4.60
2015,04,24,02,26,4.60
2015,04,24,02,27,4.70
2015,04,24,02,28,4.60
2015,04,24,02,29,4.70
2015,04,24,02,30,4.60
2015,04,24,02,31,4.70
2015,04,24,02,32,4.70
2015,04,24,02,33,4.70
2015,04,24,02,34,4.70
2015,04,24,02,35,4.70
2015,04,24,02,36,4.70
2015,04,24,02,37,4.70
2015,04,24,02,38,4.70
2015,04,24,02,39,4.70
2015,04,24,02,40,4.70
2015,04,24,02,41,4.70
2015,04,24,02,42,4.70
2015,04,24,02,43,4.70
2015,04,24,02,44,4.70
2015,04,24,02,45,4.80
2015,04,24,02,46,4.80
2015,04,24,02,47,4.80
2015,04,24,02,48,4.80
2015,04,24,02,49,4.80
2015,04,24,02,50,4.80
2015,04,24,02,51,4.80
2015,04,24,02,52,4.80
2015,04,24,02,53,4.90
2015,04,24,02,54,4.90
2015,04,24,02,55,4.80
2015,04,24,02,56,4.80
2015,04,24,02,57,4.80
2015,04,24,02,58,4.80
2015,04,24,02,59,4.80
2015,04,24,03,00,4.80
2015,04,24,03,01,4.80
2015,04,24,03,02,4.80
2015,04,24,03,03,4.80
2015,04,24,03,04,4.80
2015,04,24,03,05,4.80
2015,04,24,03,06,4.80
2015,04,24,03,07,4.80
2015,04,24,03,08,4.80
2015,04,24,03,09,4.80
2015,04,24,03,10,4.80
2015,04,24,03,11,4.80
2015,04,24,03,12,4.80
2015,04,24,03,13,4.80
2015,04,24,03,14,4.80
2015,04,24,03,15,4.80
2015,04,24,03,16,4.80
2015,04,24,03,17,4.80
2015,04,24,03,18,4.80
2015,04,24,03,19,4.90
2015,04,24,03,20,4.90
2015,04,24,03,21,4.90
2015,04,24,03,22,4.90
2015,04,24,03,23,4.90
2015,04,24,03,24,4.90
2015,04,24,03,25,4.90
2015,04,24,03,26,4.90
2015,04,24,03,27,4.90
2015,04,24,03,28,4.90
2015,04,24,03,29,4.90
2015,04,24,03,30,4.90
2015,04,24,03,31,4.90
2015,04,24,03,32,4.90
2015,04,24,03,33,4.90
2015,04,24,03,34,4.90
2015,04,24,03,35,4.90
2015,04,24,03,36,4.90
2015,04,24,03,37,4.90
2015,04,24,03,38,4.90
2015,04,24,03,39,4.90
2015,04,24,03,40,4.90
2015,04,24,03,41,4.90
2015,04,24,03,42,4.90
2015,04,24,03,43,4.90
2015,04,24,03,44,4.90
2015,04,24,03,45,4.90
2015,04,24,03,46,4.90
2015,04,24,03,47,4.90
2015,04,24,03,48,4.90
2015,04,24,03,49,4.90
2015,04,24,03,50,4.90
2015,04,24,03,51,4.90
2015,04,24,03,52,4.90
2015,04,24,03,53,4.90
2015,04,24,03,54,4.80
2015,04,24,03,55,4.80
2015,04,24,03,56,4.80
2015,04,24,03,57,4.80
2015,04,24,03,58,4.80
2015,04,24,03,59,4.80
2015,04,24,04,00,4.80
2015,04,24,04,01,4.80
2015,04,24,04,02,4.90
2015,04,24,04,03,4.90
2015,04,24,04,04,5.00
2015,04,24,04,05,5.00
2015,04,24,04,06,5.10
2015,04,24,04,07,5.10
2015,04,24,04,08,5.10
2015,04,24,04,09,5.10
2015,04,24,04,10,5.10
2015,04,24,04,11,5.00
2015,04,24,04,12,5.00
2015,04,24,04,13,5.00
2015,04,24,04,14,4.90
2015,04,24,04,15,4.90
2015,04,24,04,16,4.90
2015,04,24,04,17,4.80
2015,04,24,04,18,4.80
2015,04,24,04,19,4.80
2015,04,24,04,20,4.80
2015,04,24,04,21,4.70
2015,04,24,04,22,4.70
2015,04,24,04,23,4.70
2015,04,24,04,24,4.70
2015,04,24,04,25,4.70
2015,04,24,04,26,4.70
2015,04,24,04,27,4.60
2015,04,24,04,28,4.60
2015,04,24,04,29,4.60
2015,04,24,04,30,4.60
2015,04,24,04,31,4.60
2015,04,24,04,32,4.60
2015,04,24,04,33,4.60
2015,04,24,04,34,4.60
2015,04,24,04,35,4.60
2015,04,24,04,36,4.60
2015,04,24,04,37,4.60
2015,04,24,04,38,4.60
2015,04,24,04,39,4.60
2015,04,24,04,40,4.60
2015,04,24,04,41,4.60
2015,04,24,04,42,4.50
2015,04,24,04,43,4.50
2015,04,24,04,44,4.50
2015,04,24,04,45,4.50
2015,04,24,04,46,4.40
2015,04,24,04,47,4.40
2015,04,24,04,48,4.40
2015,04,24,04,49,4.40
2015,04,24,04,50,4.40
2015,04,24,04,51,4.30
2015,04,24,04,52,4.30
2015,04,24,04,53,4.30
2015,04,24,04,54,4.30
2015,04,24,04,55,4.30
2015,04,24,04,56,4.30
2015,04,24,04,57,4.30
2015,04,24,04,58,4.30
2015,04,24,04,59,4.30
2015,04,24,05,00,4.20
2015,04,24,05,01,4.20
2015,04,24,05,02,4.20
2015,04,24,05,03,4.20
2015,04,24,05,04,4.20
2015,04,24,05,05,4.10
2015,04,24,05,06,4.10
2015,04,24,05,07,4.10
2015,04,24,05,08,4.10
2015,04,24,05,09,4.00
2015,04,24,05,10,4.00
2015,04,24,05,11,4.00
2015,04,24,05,12,3.90
2015,04,24,05,13,3.90
2015,04,24,05,14,3.90
2015,04,24,05,15,3.90
2015,04,24,05,16,3.80
2015,04,24,05,17,3.80
2015,04,24,05,18,3.80
2015,04,24,05,19,3.80
2015,04,24,05,20,3.80
2015,04,24,05,21,3.70
2015,04,24,05,22,3.70
2015,04,24,05,23,3.70
2015,04,24,05,24,3.70
2015,04,24,05,25,3.70
2015,04,24,05,26,3.70
2015,04,24,05,27,3.60
2015,04,24,05,28,3.60
2015,04,24,05,29,3.60
2015,04,24,05,30,3.60
2015,04,24,05,31,3.60
2015,04,24,05,32,3.50
2015,04,24,05,33,3.50
2015,04,24,05,34,3.50
2015,04,24,05,35,3.50
2015,04,24,05,36,3.40
2015,04,24,05,37,3.40
2015,04,24,05,38,3.40
2015,04,24,05,39,3.40
2015,04,24,05,40,3.30
2015,04,24,05,41,3.30
2015,04,24,05,42,3.30
2015,04,24,05,43,3.30
2015,04,24,05,44,3.30
2015,04,24,05,45,3.30
2015,04,24,05,46,3.30
2015,04,24,05,47,3.20
2015,04,24,05,48,3.20
2015,04,24,05,49,3.20
2015,04,24,05,50,3.20
2015,04,24,05,51,3.20
2015,04,24,05,52,3.20
2015,04,24,05,53,3.20
2015,04,24,05,54,3.10
2015,04,24,05,55,3.10
2015,04,24,05,56,3.10
2015,04,24,05,57,3.10
2015,04,24,05,58,3.10
2015,04,24,05,59,3.10
2015,04,24,06,00,3.20
2015,04,24,06,01,3.20
2015,04,24,06,02,3.10
2015,04,24,06,03,3.10
2015,04,24,06,04,3.10
2015,04,24,06,05,3.10
2015,04,24,06,06,3.10
2015,04,24,06,07,3.10
2015,04,24,06,08,3.10
2015,04,24,06,09,3.10
2015,04,24,06,10,3.10
2015,04,24,06,11,3.10
2015,04,24,06,12,3.10
2015,04,24,06,13,3.10
2015,04,24,06,14,3.10
2015,04,24,06,15,3.00
2015,04,24,06,16,3.00
2015,04,24,06,17,2.90
2015,04,24,06,18,2.90
2015,04,24,06,19,2.80
2015,04,24,06,20,2.80
2015,04,24,06,21,2.70
2015,04,24,06,22,2.70
2015,04,24,06,23,2.70
2015,04,24,06,24,2.70
2015,04,24,06,25,2.70
2015,04,24,06,26,2.70
2015,04,24,06,27,2.70
2015,04,24,06,28,2.60
2015,04,24,06,29,2.60
2015,04,24,06,30,2.60
2015,04,24,06,31,2.60
2015,04,24,06,32,2.60
2015,04,24,06,33,2.60
2015,04,24,06,34,2.60
2015,04,24,06,35,2.70
2015,04,24,06,36,2.70
2015,04,24,06,37,2.70
2015,04,24,06,38,2.70
2015,04,24,06,39,2.70
2015,04,24,06,40,2.70
2015,04,24,06,41,2.70
2015,04,24,06,42,2.70
2015,04,24,06,43,2.70
2015,04,24,06,44,2.70
2015,04,24,06,45,2.70
2015,04,24,06,46,2.70
2015,04,24,06,47,2.70
2015,04,24,06,48,2.60
2015,04,24,06,49,2.60
2015,04,24,06,50,2.60
2015,04,24,06,51,2.60
2015,04,24,06,52,2.60
2015,04,24,06,53,2.60
2015,04,24,06,54,2.60
2015,04,24,06,55,2.60
2015,04,24,06,56,2.60
2015,04,24,06,57,2.60
2015,04,24,06,58,2.60
2015,04,24,06,59,2.60
2015,04,24,07,00,2.60
2015,04,24,07,01,2.50
2015,04,24,07,02,2.50
2015,04,24,07,03,2.50
2015,04,24,07,04,2.50
2015,04,24,07,05,2.50
2015,04,24,07,06,2.40
2015,04,24,07,07,2.40
2015,04,24,07,08,2.40
2015,04,24,07,09,2.40
2015,04,24,07,10,2.40
2015,04,24,07,11,2.40
2015,04,24,07,12,2.50
2015,04,24,07,13,2.50
2015,04,24,07,14,2.50
2015,04,24,07,15,2.50
2015,04,24,07,16,2.50
2015,04,24,07,17,2.50
2015,04,24,07,18,2.50
2015,04,24,07,19,2.50
2015,04,24,07,20,2.50
2015,04,24,07,21,2.40
2015,04,24,07,22,2.40
2015,04,24,07,23,2.40
2015,04,24,07,24,2.50
2015,04,24,07,25,2.50
2015,04,24,07,26,2.50
2015,04,24,07,27,2.50
2015,04,24,07,28,2.60
2015,04,24,07,29,2.60
2015,04,24,07,30,2.60
2015,04,24,07,31,2.60
2015,04,24,07,32,2.60
2015,04,24,07,33,2.60
2015,04,24,07,34,2.60
2015,04,24,07,35,2.60
2015,04,24,07,36,2.60
2015,04,24,07,37,2.60
2015,04,24,07,38,2.60
2015,04,24,07,39,2.60
2015,04,24,07,40,2.70
2015,04,24,07,41,2.70
2015,04,24,07,42,2.60
2015,04,24,07,43,2.70
2015,04,24,07,44,2.70
2015,04,24,07,45,2.70
2015,04,24,07,46,2.70
2015,04,24,07,47,2.70
2015,04,24,07,48,2.60
2015,04,24,07,49,2.60
2015,04,24,07,50,2.60
2015,04,24,07,51,2.60
2015,04,24,07,52,2.60
2015,04,24,07,53,2.60
2015,04,24,07,54,2.60
2015,04,24,07,55,2.60
2015,04,24,07,56,2.60
2015,04,24,07,57,2.70
2015,04,24,07,58,2.70
2015,04,24,07,59,2.70
2015,04,24,08,00,2.70
2015,04,24,08,01,2.70
2015,04,24,08,02,2.70
2015,04,24,08,03,2.70
2015,04,24,08,04,2.70
2015,04,24,08,05,2.70
2015,04,24,08,06,2.70
2015,04,24,08,07,2.80
2015,04,24,08,08,2.80
2015,04,24,08,09,2.80
2015,04,24,08,10,2.80
2015,04,24,08,11,2.80
2015,04,24,08,12,2.80
2015,04,24,08,13,2.90
2015,04,24,08,14,2.90
2015,04,24,08,15,2.90
2015,04,24,08,16,2.90
2015,04,24,08,17,3.00
2015,04,24,08,18,3.00
2015,04,24,08,19,3.00
2015,04,24,08,20,3.00
2015,04,24,08,21,3.00
2015,04,24,08,22,3.00
2015,04,24,08,23,3.00
2015,04,24,08,24,3.00
2015,04,24,08,25,3.00
2015,04,24,08,26,3.10
2015,04,24,08,27,3.10
2015,04,24,08,28,3.10
2015,04,24,08,29,3.10
2015,04,24,08,30,3.10
2015,04,24,08,31,3.10
2015,04,24,08,32,3.10
2015,04,24,08,33,3.10
2015,04,24,08,34,3.10
2015,04,24,08,35,3.10
2015,04,24,08,36,3.10
2015,04,24,08,37,3.10
2015,04,24,08,38,3.10
2015,04,24,08,39,3.10
2015,04,24,08,40,3.10
2015,04,24,08,41,3.10
2015,04,24,08,42,3.20
2015,04,24,08,43,3.20
2015,04,24,08,44,3.20
2015,04,24,08,45,3.20
2015,04,24,08,46,3.20
2015,04,24,08,47,3.20
2015,04,24,08,48,3.20
2015,04,24,08,49,3.20
2015,04,24,08,50,3.20
2015,04,24,08,51,3.20
2015,04,24,08,52,3.20
2015,04,24,08,53,3.20
2015,04,24,08,54,3.20
2015,04,24,08,55,3.20
2015,04,24,08,56,3.20
2015,04,24,08,57,3.20
2015,04,24,08,58,3.20
2015,04,24,08,59,3.20
2015,04,24,09,00,3.20
2015,04,24,09,01,3.20
2015,04,24,09,02,3.30
2015,04,24,09,03,3.30
2015,04,24,09,04,3.30
2015,04,24,09,05,3.30
2015,04,24,09,06,3.30
2015,04,24,09,07,3.30
2015,04,24,09,08,3.40
2015,04,24,09,09,3.40
2015,04,24,09,10,3.40
2015,04,24,09,11,3.40
2015,04,24,09,12,3.50
2015,04,24,09,13,3.50
2015,04,24,09,14,3.50
2015,04,24,09,15,3.50
2015,04,24,09,16,3.60
2015,04,24,09,17,3.60
2015,04,24,09,18,3.60
2015,04,24,09,19,3.60
2015,04,24,09,20,3.70
2015,04,24,09,21,3.70
2015,04,24,09,22,3.70
2015,04,24,09,23,3.70
2015,04,24,09,24,3.70
2015,04,24,09,25,3.80
2015,04,24,09,26,3.80
2015,04,24,09,27,3.80
2015,04,24,09,28,3.80
2015,04,24,09,29,3.80
2015,04,24,09,30,3.80
2015,04,24,09,31,3.80
2015,04,24,09,32,3.90
2015,04,24,09,33,3.90
2015,04,24,09,34,3.90
2015,04,24,09,35,3.90
2015,04,24,09,36,4.00
2015,04,24,09,37,4.00
2015,04,24,09,38,4.00
2015,04,24,09,39,4.00
2015,04,24,09,40,4.10
2015,04,24,09,41,4.10
2015,04,24,09,42,4.10
2015,04,24,09,43,4.10
2015,04,24,09,44,4.10
2015,04,24,09,45,4.10
2015,04,24,09,46,4.20
2015,04,24,09,47,4.20
2015,04,24,09,48,4.20
2015,04,24,09,49,4.20
2015,04,24,09,50,4.20
2015,04,24,09,51,4.30
2015,04,24,09,52,4.30
2015,04,24,09,53,4.30
2015,04,24,09,54,4.40
2015,04,24,09,55,4.50
2015,04,24,09,56,4.50
2015,04,24,09,57,4.60
2015,04,24,09,58,4.70
2015,04,24,09,59,4.80
2015,04,24,10,00,4.90
2015,04,24,10,01,5.00
2015,04,24,10,02,5.10
2015,04,24,10,03,5.20
2015,04,24,10,04,5.30
2015,04,24,10,05,5.40
2015,04,24,10,06,5.40
2015,04,24,10,07,5.50
2015,04,24,10,08,5.60
2015,04,24,10,09,5.70
2015,04,24,10,10,5.80
2015,04,24,10,11,5.80
2015,04,24,10,12,6.00
2015,04,24,10,13,6.10
2015,04,24,10,14,6.10
2015,04,24,10,15,6.20
2015,04,24,10,16,6.30
2015,04,24,10,17,6.40
2015,04,24,10,18,6.50
2015,04,24,10,19,6.60
2015,04,24,10,20,6.70
2015,04,24,10,21,6.70
2015,04,24,10,22,6.80
2015,04,24,10,23,6.80
2015,04,24,10,24,6.90
2015,04,24,10,25,6.90
2015,04,24,10,26,6.90
2015,04,24,10,27,7.00
2015,04,24,10,28,7.10
2015,04,24,10,29,7.10
2015,04,24,10,30,7.20
2015,04,24,10,31,7.20
2015,04,24,10,32,7.30
2015,04,24,10,33,7.30
2015,04,24,10,34,7.40
2015,04,24,10,35,7.50
2015,04,24,10,36,7.60
2015,04,24,10,37,7.70
2015,04,24,10,38,7.80
2015,04,24,10,39,7.90
2015,04,24,10,40,8.10
2015,04,24,10,41,8.20
2015,04,24,10,42,8.30
2015,04,24,10,43,8.40
2015,04,24,10,44,8.50
2015,04,24,10,45,8.50
2015,04,24,10,46,8.60
2015,04,24,10,47,8.60
2015,04,24,10,48,8.70
2015,04,24,10,49,8.70
2015,04,24,10,50,8.70
2015,04,24,10,51,8.80
2015,04,24,10,52,8.80
2015,04,24,10,53,8.80
2015,04,24,10,54,8.80
2015,04,24,10,55,8.90
2015,04,24,10,56,9.00
2015,04,24,10,57,9.10
2015,04,24,10,58,9.10
2015,04,24,10,59,9.20
2015,04,24,11,00,9.20
2015,04,24,11,01,9.20
2015,04,24,11,02,9.30
2015,04,24,11,03,9.40
2015,04,24,11,04,9.40
2015,04,24,11,05,9.50
2015,04,24,11,06,9.60
2015,04,24,11,07,9.60
2015,04,24,11,08,9.70
2015,04,24,11,09,9.80
2015,04,24,11,10,9.90
2015,04,24,11,11,10.00
2015,04,24,11,12,10.10
2015,04,24,11,13,10.20
2015,04,24,11,14,10.30
2015,04,24,11,15,10.30
2015,04,24,11,16,10.30
2015,04,24,11,17,10.40
2015,04,24,11,18,10.50
2015,04,24,11,19,10.50
2015,04,24,11,20,10.50
2015,04,24,11,21,10.60
2015,04,24,11,22,10.70
2015,04,24,11,23,10.80
2015,04,24,11,24,10.90
2015,04,24,11,25,11.00
2015,04,24,11,26,11.10
2015,04,24,11,27,11.20
2015,04,24,11,28,11.20
2015,04,24,11,29,11.20
2015,04,24,11,30,11.20
2015,04,24,11,31,11.20
2015,04,24,11,32,11.30
2015,04,24,11,33,11.30
2015,04,24,11,34,11.40
2015,04,24,11,35,11.40
2015,04,24,11,36,11.40
2015,04,24,11,37,11.40
2015,04,24,11,38,11.30
2015,04,24,11,39,11.40
2015,04,24,11,40,11.40
2015,04,24,11,41,11.50
2015,04,24,11,42,11.60
2015,04,24,11,43,11.70
2015,04,24,11,44,11.70
2015,04,24,11,45,11.80
2015,04,24,11,46,11.90
2015,04,24,11,47,12.00
2015,04,24,11,48,12.00
2015,04,24,11,49,12.10
2015,04,24,11,50,12.20
2015,04,24,11,51,12.30
2015,04,24,11,52,12.40
2015,04,24,11,53,12.50
2015,04,24,11,54,12.50
2015,04,24,11,55,12.50
2015,04,24,11,56,12.50
2015,04,24,11,57,12.50
2015,04,24,11,58,12.60
2015,04,24,11,59,12.60
2015,04,24,12,00,12.60
2015,04,24,12,01,12.60
2015,04,24,12,02,12.60
2015,04,24,12,03,12.70
2015,04,24,12,04,12.70
2015,04,24,12,05,12.60
2015,04,24,12,06,12.60
2015,04,24,12,07,12.60
2015,04,24,12,08,12.50
2015,04,24,12,09,12.50
2015,04,24,12,10,12.40
2015,04,24,12,11,12.30
2015,04,24,12,12,12.20
2015,04,24,12,13,12.10
2015,04,24,12,14,12.00
2015,04,24,12,15,12.00
2015,04,24,12,16,11.90
2015,04,24,12,17,11.90
2015,04,24,12,18,11.90
2015,04,24,12,19,11.90
2015,04,24,12,20,11.90
2015,04,24,12,21,11.90
2015,04,24,12,22,11.90
2015,04,24,12,23,11.90
2015,04,24,12,24,11.90
2015,04,24,12,25,11.90
2015,04,24,12,26,11.90
2015,04,24,12,27,11.90
2015,04,24,12,28,11.90
2015,04,24,12,29,11.90
2015,04,24,12,30,11.80
2015,04,24,12,31,11.80
2015,04,24,12,32,11.80
2015,04,24,12,33,11.80
2015,04,24,12,34,11.80
2015,04,24,12,35,11.80
2015,04,24,12,36,11.80
2015,04,24,12,37,11.90
2015,04,24,12,38,12.00
2015,04,24,12,39,12.00
2015,04,24,12,40,12.10
2015,04,24,12,41,12.20
2015,04,24,12,42,12.20
2015,04,24,12,43,12.40
2015,04,24,12,44,12.50
2015,04,24,12,45,12.50
2015,04,24,12,46,12.50
2015,04,24,12,47,12.50
2015,04,24,12,48,12.50
2015,04,24,12,49,12.50
2015,04,24,12,50,12.50
2015,04,24,12,51,12.60
2015,04,24,12,52,12.70
2015,04,24,12,53,12.80
2015,04,24,12,54,12.80
2015,04,24,12,55,12.80
2015,04,24,12,56,12.90
2015,04,24,12,57,12.80
2015,04,24,12,58,12.80
2015,04,24,12,59,12.70
2015,04,24,13,00,12.50
2015,04,24,13,01,12.40
2015,04,24,13,02,12.30
2015,04,24,13,03,12.20
2015,04,24,13,04,12.10
2015,04,24,13,05,12.00
2015,04,24,13,06,11.80
2015,04,24,13,07,11.60
2015,04,24,13,08,11.40
2015,04,24,13,09,11.10
2015,04,24,13,10,10.90
2015,04,24,13,11,10.70
2015,04,24,13,12,10.50
2015,04,24,13,13,10.40
2015,04,24,13,14,10.30
2015,04,24,13,15,10.20
2015,04,24,13,16,10.10
2015,04,24,13,17,10.00
2015,04,24,13,18,9.90
2015,04,24,13,19,9.90
2015,04,24,13,20,9.80
2015,04,24,13,21,9.80
2015,04,24,13,22,9.70
2015,04,24,13,23,9.60
2015,04,24,13,24,9.50
2015,04,24,13,25,9.50
2015,04,24,13,26,9.40
2015,04,24,13,27,9.30
2015,04,24,13,28,9.30
2015,04,24,13,29,9.30
2015,04,24,13,30,9.20
2015,04,24,13,31,9.20
2015,04,24,13,32,9.20
2015,04,24,13,33,9.10
2015,04,24,13,34,9.10
2015,04,24,13,35,9.10
2015,04,24,13,36,9.10
2015,04,24,13,37,9.10
2015,04,24,13,38,9.10
2015,04,24,13,39,9.10
2015,04,24,13,40,9.10
2015,04,24,13,41,9.20
2015,04,24,13,42,9.20
2015,04,24,13,43,9.20
2015,04,24,13,44,9.20
2015,04,24,13,45,9.30
2015,04,24,13,46,9.30
2015,04,24,13,47,9.30
2015,04,24,13,48,9.30
2015,04,24,13,49,9.30
2015,04,24,13,50,9.40
2015,04,24,13,51,9.40
2015,04,24,13,52,9.40
2015,04,24,13,53,9.40
2015,04,24,13,54,9.40
2015,04,24,13,55,9.40
2015,04,24,13,56,9.40
2015,04,24,13,57,9.50
2015,04,24,13,58,9.50
2015,04,24,13,59,9.50
2015,04,24,14,00,9.50
2015,04,24,14,01,9.50
2015,04,24,14,02,9.50
2015,04,24,14,03,9.50
2015,04,24,14,04,9.60
2015,04,24,14,05,9.60
2015,04,24,14,06,9.60
2015,04,24,14,07,9.70
2015,04,24,14,08,9.70
2015,04,24,14,09,9.70
2015,04,24,14,10,9.70
2015,04,24,14,11,9.70
2015,04,24,14,12,9.70
2015,04,24,14,13,9.70
2015,04,24,14,14,9.80
2015,04,24,14,15,9.80
2015,04,24,14,16,9.80
2015,04,24,14,17,9.80
2015,04,24,14,18,9.80
2015,04,24,14,19,9.80
2015,04,24,14,20,9.80
2015,04,24,14,21,9.80
2015,04,24,14,22,9.80
2015,04,24,14,23,9.90
2015,04,24,14,24,9.90
2015,04,24,14,25,9.90
2015,04,24,14,26,10.00
2015,04,24,14,27,10.10
2015,04,24,14,28,10.10
2015,04,24,14,29,10.20
2015,04,24,14,30,10.30
2015,04,24,14,31,10.30
2015,04,24,14,32,10.40
2015,04,24,14,33,10.50
2015,04,24,14,34,10.60
2015,04,24,14,35,10.70
2015,04,24,14,36,10.70
2015,04,24,14,37,10.80
2015,04,24,14,38,10.80
2015,04,24,14,39,10.90
2015,04,24,14,40,10.90
2015,04,24,14,41,11.00
2015,04,24,14,42,11.00
2015,04,24,14,43,11.10
2015,04,24,14,44,11.10
2015,04,24,14,45,11.20
2015,04,24,14,46,11.20
2015,04,24,14,47,11.30
2015,04,24,14,48,11.40
2015,04,24,14,49,11.40
2015,04,24,14,50,11.50
2015,04,24,14,51,11.60
2015,04,24,14,52,11.60
2015,04,24,14,53,11.70
2015,04,24,14,54,11.80
2015,04,24,14,55,11.90
2015,04,24,14,56,12.00
2015,04,24,14,57,12.10
2015,04,24,14,58,12.20
2015,04,24,14,59,12.30
2015,04,24,15,00,12.30
2015,04,24,15,01,12.40
2015,04,24,15,02,12.50
2015,04,24,15,03,12.50
2015,04,24,15,04,12.50
2015,04,24,15,05,12.40
2015,04,24,15,06,12.40
2015,04,24,15,07,12.40
2015,04,24,15,08,12.40
2015,04,24,15,09,12.40
2015,04,24,15,10,12.30
2015,04,24,15,11,12.30
2015,04,24,15,12,12.30
2015,04,24,15,13,12.20
2015,04,24,15,14,12.20
2015,04,24,15,15,12.20
2015,04,24,15,16,12.10
2015,04,24,15,17,12.10
2015,04,24,15,18,11.90
2015,04,24,15,19,11.70
2015,04,24,15,20,11.40
2015,04,24,15,21,10.90
2015,04,24,15,22,10.60
2015,04,24,15,23,10.30
2015,04,24,15,24,10.10
2015,04,24,15,25,9.90
2015,04,24,15,26,9.80
2015,04,24,15,27,9.70
2015,04,24,15,28,9.60
2015,04,24,15,29,9.50
2015,04,24,15,30,9.30
2015,04,24,15,31,9.10
2015,04,24,15,32,9.00
2015,04,24,15,33,8.90
2015,04,24,15,34,8.70
2015,04,24,15,35,8.60
2015,04,24,15,36,8.50
2015,04,24,15,37,8.30
2015,04,24,15,38,8.20
2015,04,24,15,39,8.10
2015,04,24,15,40,8.00
2015,04,24,15,41,7.90
2015,04,24,15,42,7.80
2015,04,24,15,43,7.70
2015,04,24,15,44,7.60
2015,04,24,15,45,7.50
2015,04,24,15,46,7.50
2015,04,24,15,47,7.40
2015,04,24,15,48,7.30
2015,04,24,15,49,7.30
2015,04,24,15,50,7.20
2015,04,24,15,51,7.20
2015,04,24,15,52,7.10
2015,04,24,15,53,7.10
2015,04,24,15,54,7.10
2015,04,24,15,55,7.10
2015,04,24,15,56,7.00
2015,04,24,15,57,7.00
2015,04,24,15,58,7.00
2015,04,24,15,59,6.90
2015,04,24,16,00,6.90
2015,04,24,16,01,6.90
2015,04,24,16,02,6.90
2015,04,24,16,03,6.90
2015,04,24,16,04,6.90
2015,04,24,16,05,6.90
2015,04,24,16,06,6.90
2015,04,24,16,07,6.90
2015,04,24,16,08,6.90
2015,04,24,16,09,6.90
2015,04,24,16,10,6.90
2015,04,24,16,11,6.90
2015,04,24,16,12,6.90
2015,04,24,16,13,6.90
2015,04,24,16,14,7.00
2015,04,24,16,15,7.00
2015,04,24,16,16,7.00
2015,04,24,16,17,7.00
2015,04,24,16,18,6.90
2015,04,24,16,19,6.90
2015,04,24,16,20,6.90
2015,04,24,16,21,6.90
2015,04,24,16,22,6.90
2015,04,24,16,23,6.80
2015,04,24,16,24,6.80
2015,04,24,16,25,6.80
2015,04,24,16,26,6.80
2015,04,24,16,27,6.80
2015,04,24,16,28,6.80
2015,04,24,16,29,6.80
2015,04,24,16,30,6.80
2015,04,24,16,31,6.80
2015,04,24,16,32,6.80
2015,04,24,16,33,6.80
2015,04,24,16,34,6.80
2015,04,24,16,35,6.90
2015,04,24,16,36,6.90
2015,04,24,16,37,6.90
2015,04,24,16,38,6.90
2015,04,24,16,39,6.90
2015,04,24,16,40,6.90
2015,04,24,16,41,6.90
2015,04,24,16,42,6.90
2015,04,24,16,43,6.90
2015,04,24,16,44,7.00
2015,04,24,16,45,7.00
2015,04,24,16,46,7.00
2015,04,24,16,47,7.10
2015,04,24,16,48,7.10
2015,04,24,16,49,7.10
2015,04,24,16,50,7.10
2015,04,24,16,51,7.10
2015,04,24,16,52,7.00
2015,04,24,16,53,7.00
2015,04,24,16,54,7.10
2015,04,24,16,55,7.10
2015,04,24,16,56,7.20
2015,04,24,16,57,7.20
2015,04,24,16,58,7.30
2015,04,24,16,59,7.30
2015,04,24,17,00,7.40
2015,04,24,17,01,7.40
2015,04,24,17,02,7.40
2015,04,24,17,03,7.50
2015,04,24,17,04,7.50
2015,04,24,17,05,7.50
2015,04,24,17,06,7.60
2015,04,24,17,07,7.60
2015,04,24,17,08,7.70
2015,04,24,17,09,7.70
2015,04,24,17,10,7.70
2015,04,24,17,11,7.70
2015,04,24,17,12,7.80
2015,04,24,17,13,7.70
2015,04,24,17,14,7.70
2015,04,24,17,15,7.70
2015,04,24,17,16,7.70
2015,04,24,17,17,7.70
2015,04,24,17,18,7.70
2015,04,24,17,19,7.70
2015,04,24,17,20,7.70
2015,04,24,17,21,7.70
2015,04,24,17,22,7.80
2015,04,24,17,23,7.80
2015,04,24,17,24,7.80
2015,04,24,17,25,7.80
2015,04,24,17,26,7.80
2015,04,24,17,27,7.70
2015,04,24,17,28,7.70
2015,04,24,17,29,7.70
2015,04,24,17,30,7.70
2015,04,24,17,31,7.70
2015,04,24,17,32,7.70
2015,04,24,17,33,7.70
2015,04,24,17,34,7.70
2015,04,24,17,35,7.70
2015,04,24,17,36,7.70
2015,04,24,17,37,7.70
2015,04,24,17,38,7.70
2015,04,24,17,39,7.70
2015,04,24,17,40,7.70
2015,04,24,17,41,7.70
2015,04,24,17,42,7.70
2015,04,24,17,43,7.70
2015,04,24,17,44,7.70
2015,04,24,17,45,7.60
2015,04,24,17,46,7.60
2015,04,24,17,47,7.60
2015,04,24,17,48,7.60
2015,04,24,17,49,7.70
2015,04,24,17,50,7.70
2015,04,24,17,51,7.70
2015,04,24,17,52,7.70
2015,04,24,17,53,7.60
2015,04,24,17,54,7.70
2015,04,24,17,55,7.70
2015,04,24,17,56,7.70
2015,04,24,17,57,7.70
2015,04,24,17,58,7.80